• In Hungary
  • List of Countries
  • For 7 days
  • Water Temperature
  • Satellite Maps
  • Weather Map
  • News
  • Weather Widgets
  • user-avatar
    Login

    Hourly Weather Zaplavskaya

    Today, 25 May, Friday

    Time Temperature Precipitation Wind Pressure Humidity
    00:00 +19°C° 0.1 mm 2 mps 756 mmHg 89%
    01:00 +19°C° 0 mm 2 mps 756 mmHg 90%
    02:00 +19°C° 0 mm 2 mps 756 mmHg 91%
    03:00 +19°C° 0 mm 2 mps 756 mmHg 91%
    04:00 +19°C° 0.4 mm 2 mps 756 mmHg 90%
    05:00 +19°C° 0.4 mm 2 mps 756 mmHg 90%
    06:00 +20°C° 0.4 mm 2 mps 755 mmHg 89%
    07:00 +21°C° 0 mm 2 mps 755 mmHg 84%
    08:00 +24°C° 0 mm 2 mps 756 mmHg 79%
    09:00 +25°C° 0 mm 2 mps 756 mmHg 73%
    10:00 +26°C° 0.1 mm 2 mps 756 mmHg 70%
    11:00 +27°C° 0.1 mm 3 mps 756 mmHg 66%
    12:00 +28°C° 0.1 mm 3 mps 756 mmHg 62%
    13:00 +28°C° 0.8 mm 3 mps 756 mmHg 62%
    14:00 +28°C° 0.8 mm 3 mps 755 mmHg 62%
    15:00 +28°C° 0.8 mm 4 mps 755 mmHg 62%
    16:00 +28°C° 0.4 mm 3 mps 755 mmHg 65%
    17:00 +27°C° 0.4 mm 3 mps 755 mmHg 68%
    18:00 +27°C° 0.4 mm 3 mps 755 mmHg 71%
    19:00 +25°C° 0.1 mm 3 mps 755 mmHg 75%
    20:00 +24°C° 0.1 mm 3 mps 756 mmHg 80%
    21:00 +21°C° 0.1 mm 3 mps 756 mmHg 85%
    22:00 +21°C° 0 mm 3 mps 756 mmHg 87%
    23:00 +20°C° 0 mm 3 mps 756 mmHg 90%

    Tomorrow, 26 May, Saturday

    Time Temperature Precipitation Wind Pressure Humidity
    00:00 +19°C° 0 mm 3 mps 757 mmHg 92%
    01:00 +19°C° 0 mm 4 mps 757 mmHg 91%
    02:00 +19°C° 0 mm 5 mps 757 mmHg 91%
    03:00 +19°C° 0 mm 6 mps 758 mmHg 90%
    04:00 +17°C° 0 mm 7 mps 758 mmHg 86%
    05:00 +16°C° 0 mm 8 mps 759 mmHg 82%
    06:00 +15°C° 0 mm 9 mps 760 mmHg 78%
    07:00 +15°C° 0 mm 9 mps 761 mmHg 74%
    08:00 +15°C° 0 mm 9 mps 761 mmHg 70%
    09:00 +15°C° 0 mm 9 mps 762 mmHg 66%
    10:00 +16°C° 0 mm 9 mps 763 mmHg 62%
    11:00 +17°C° 0 mm 10 mps 763 mmHg 58%
    12:00 +18°C° 0 mm 10 mps 764 mmHg 54%
    13:00 +18°C° 0 mm 10 mps 764 mmHg 53%
    14:00 +18°C° 0 mm 10 mps 764 mmHg 51%
    15:00 +19°C° 0 mm 9 mps 765 mmHg 50%
    16:00 +18°C° 0 mm 9 mps 765 mmHg 52%
    17:00 +17°C° 0 mm 8 mps 765 mmHg 54%
    18:00 +17°C° 0 mm 7 mps 765 mmHg 56%
    19:00 +16°C° 0 mm 7 mps 766 mmHg 55%
    20:00 +15°C° 0 mm 7 mps 766 mmHg 54%
    21:00 +14°C° 0 mm 7 mps 767 mmHg 54%
    22:00 +12°C° 0 mm 7 mps 767 mmHg 54%
    23:00 +12°C° 0 mm 7 mps 768 mmHg 54%

    Day after tomorrow, 27 May, Sunday

    Time Temperature Precipitation Wind Pressure Humidity
    00:00 +11°C° 0 mm 7 mps 768 mmHg 54%
    01:00 +11°C° 0 mm 7 mps 768 mmHg 55%
    02:00 +10°C° 0 mm 7 mps 768 mmHg 55%
    03:00 +10°C° 0 mm 7 mps 768 mmHg 56%
    04:00 +10°C° 0 mm 7 mps 768 mmHg 58%
    05:00 +10°C° 0 mm 7 mps 768 mmHg 61%
    06:00 +9°C° 0 mm 7 mps 769 mmHg 63%
    07:00 +11°C° 0 mm 7 mps 769 mmHg 60%
    08:00 +12°C° 0 mm 7 mps 769 mmHg 57%
    09:00 +15°C° 0 mm 8 mps 769 mmHg 54%
    10:00 +16°C° 0 mm 8 mps 768 mmHg 52%
    11:00 +17°C° 0 mm 8 mps 768 mmHg 50%
    12:00 +18°C° 0 mm 8 mps 768 mmHg 48%
    13:00 +18°C° 0 mm 8 mps 768 mmHg 47%
    14:00 +20°C° 0 mm 7 mps 767 mmHg 47%
    15:00 +20°C° 0 mm 7 mps 767 mmHg 47%
    16:00 +20°C° 0 mm 6 mps 766 mmHg 50%
    17:00 +20°C° 0 mm 6 mps 766 mmHg 53%
    18:00 +20°C° 0 mm 5 mps 766 mmHg 56%
    19:00 +17°C° 0 mm 5 mps 766 mmHg 57%
    20:00 +17°C° 0 mm 4 mps 766 mmHg 59%
    21:00 +14°C° 0 mm 4 mps 766 mmHg 61%
    22:00 +14°C° 0 mm 4 mps 766 mmHg 59%
    23:00 +13°C° 0 mm 4 mps 766 mmHg 58%

    28 May, Monday

    Time Temperature Precipitation Wind Pressure Humidity
    00:00 +13°C° 0 mm 5 mps 765 mmHg 56%
    01:00 +12°C° 0 mm 4 mps 765 mmHg 57%
    02:00 +12°C° 0 mm 4 mps 765 mmHg 57%
    03:00 +11°C° 0 mm 4 mps 765 mmHg 58%
    04:00 +11°C° 0 mm 4 mps 765 mmHg 60%
    05:00 +11°C° 0 mm 4 mps 766 mmHg 62%
    06:00 +11°C° 0 mm 4 mps 766 mmHg 65%
    07:00 +13°C° 0 mm 4 mps 766 mmHg 61%
    08:00 +15°C° 0 mm 5 mps 766 mmHg 56%
    09:00 +17°C° 0 mm 6 mps 766 mmHg 52%
    10:00 +20°C° 0 mm 6 mps 766 mmHg 49%
    11:00 +21°C° 0 mm 6 mps 766 mmHg 46%
    12:00 +22°C° 0 mm 6 mps 765 mmHg 43%
    13:00 +23°C° 0 mm 6 mps 765 mmHg 43%
    14:00 +23°C° 0 mm 5 mps 765 mmHg 43%
    15:00 +25°C° 0 mm 5 mps 765 mmHg 43%
    16:00 +23°C° 0 mm 5 mps 765 mmHg 47%
    17:00 +23°C° 0 mm 4 mps 765 mmHg 52%
    18:00 +24°C° 0 mm 3 mps 765 mmHg 56%
    19:00 +21°C° 0 mm 3 mps 765 mmHg 60%
    20:00 +19°C° 0 mm 3 mps 766 mmHg 64%
    21:00 +18°C° 0 mm 3 mps 766 mmHg 68%
    22:00 +17°C° 0 mm 4 mps 766 mmHg 66%
    23:00 +16°C° 0 mm 5 mps 766 mmHg 64%

    29 May, Tuesday

    Time Temperature Precipitation Wind Pressure Humidity
    00:00 +16°C° 0 mm 6 mps 766 mmHg 62%
    01:00 +15°C° 0 mm 6 mps 766 mmHg 61%
    02:00 +14°C° 0 mm 6 mps 767 mmHg 59%
    03:00 +13°C° 0 mm 6 mps 767 mmHg 58%
    04:00 +13°C° 0 mm 6 mps 767 mmHg 61%
    05:00 +13°C° 0 mm 6 mps 767 mmHg 64%
    06:00 +13°C° 0 mm 6 mps 767 mmHg 67%
    07:00 +14°C° 0 mm 6 mps 767 mmHg 63%
    08:00 +16°C° 0 mm 7 mps 768 mmHg 59%
    09:00 +17°C° 0 mm 7 mps 768 mmHg 55%
    10:00 +18°C° 0 mm 7 mps 767 mmHg 52%
    11:00 +20°C° 0 mm 7 mps 767 mmHg 50%
    12:00 +21°C° 0 mm 7 mps 767 mmHg 48%
    13:00 +21°C° 0 mm 7 mps 767 mmHg 47%
    14:00 +22°C° 0 mm 7 mps 766 mmHg 47%
    15:00 +22°C° 0 mm 7 mps 766 mmHg 46%
    16:00 +22°C° 0 mm 7 mps 766 mmHg 48%
    17:00 +21°C° 0 mm 6 mps 765 mmHg 51%
    18:00 +21°C° 0 mm 5 mps 765 mmHg 54%
    19:00 +19°C° 0 mm 5 mps 765 mmHg 54%
    20:00 +17°C° 0 mm 5 mps 765 mmHg 55%
    21:00 +15°C° 0 mm 5 mps 766 mmHg 56%
    22:00 +15°C° 0 mm 5 mps 765 mmHg 56%
    23:00 +14°C° 0 mm 5 mps 765 mmHg 55%

    30 May, Wednesday

    Time Temperature Precipitation Wind Pressure Humidity
    00:00 +14°C° 0 mm 5 mps 765 mmHg 55%
    01:00 +13°C° 0 mm 5 mps 765 mmHg 56%
    02:00 +13°C° 0 mm 4 mps 765 mmHg 57%
    03:00 +12°C° 0 mm 4 mps 764 mmHg 58%
    04:00 +12°C° 0 mm 4 mps 764 mmHg 60%
    05:00 +13°C° 0 mm 4 mps 764 mmHg 62%
    06:00 +13°C° 0 mm 4 mps 764 mmHg 65%
    07:00 +15°C° 0 mm 5 mps 764 mmHg 59%
    08:00 +17°C° 0 mm 5 mps 764 mmHg 53%
    09:00 +20°C° 0 mm 6 mps 764 mmHg 47%
    10:00 +21°C° 0 mm 6 mps 764 mmHg 45%
    11:00 +22°C° 0 mm 6 mps 763 mmHg 43%
    12:00 +23°C° 0 mm 6 mps 763 mmHg 41%
    13:00 +24°C° 0 mm 6 mps 762 mmHg 41%
    14:00 +25°C° 0 mm 5 mps 762 mmHg 41%
    15:00 +26°C° 0 mm 5 mps 761 mmHg 41%
    16:00 +26°C° 0 mm 5 mps 761 mmHg 46%
    17:00 +25°C° 0 mm 4 mps 761 mmHg 50%
    18:00 +25°C° 0 mm 3 mps 761 mmHg 54%
    19:00 +22°C° 0 mm 3 mps 760 mmHg 56%
    20:00 +20°C° 0 mm 3 mps 760 mmHg 58%
    21:00 +18°C° 0 mm 3 mps 760 mmHg 60%
    22:00 +17°C° 0 mm 3 mps 760 mmHg 61%
    23:00 +17°C° 0 mm 3 mps 760 mmHg 61%
    Show more